Time,TemperatureF,DewpointF,PressureIn,WindDirection,WindDirectionDegrees,WindSpeedMPH,WindSpeedGustMPH,Humidity,HourlyPrecipIn,Conditions,Clouds,dailyrainin,SolarRadiationWatts/m^2,SoftwareType,DateUTC
2013-03-16 00:01:00,59.3,29.4,29.85,North,353,2.0,3.0,32,0.00,,,0.00,0,WeatherCatV1.11B39,2013-03-16 07:01:00,
2013-03-16 00:06:00,59.3,29.4,29.84,North,353,2.0,2.0,32,0.00,,,0.00,0,WeatherCatV1.11B39,2013-03-16 07:06:00,
2013-03-16 00:11:00,59.4,29.5,29.84,North,353,3.0,3.0,32,0.00,,,0.00,0,WeatherCatV1.11B39,2013-03-16 07:11:00,
2013-03-16 00:16:00,59.0,29.2,29.84,North,353,2.0,3.0,32,0.00,,,0.00,0,WeatherCatV1.11B39,2013-03-16 07:16:00,
2013-03-16 00:21:00,58.6,29.6,29.84,North,353,3.0,3.0,33,0.00,,,0.00,0,WeatherCatV1.11B39,2013-03-16 07:21:00,
2013-03-16 00:26:00,58.4,29.4,29.84,North,353,1.0,2.0,33,0.00,,,0.00,0,WeatherCatV1.11B39,2013-03-16 07:26:00,
2013-03-16 00:31:00,58.2,30.0,29.84,North,353,0.0,2.0,34,0.00,,,0.00,0,WeatherCatV1.11B39,2013-03-16 07:31:00,
2013-03-16 00:36:00,57.8,29.6,29.84,North,353,2.0,2.0,34,0.00,,,0.00,0,WeatherCatV1.11B39,2013-03-16 07:36:00,
2013-03-16 00:41:00,57.6,29.4,29.84,North,353,1.0,2.0,34,0.00,,,0.00,0,WeatherCatV1.11B39,2013-03-16 07:41:00,
2013-03-16 00:46:00,57.5,30.1,29.84,North,353,2.0,2.0,35,0.00,,,0.00,0,WeatherCatV1.11B39,2013-03-16 07:46:00,
2013-03-16 00:51:00,57.5,30.1,29.84,North,353,2.0,3.0,35,0.00,,,0.00,0,WeatherCatV1.11B39,2013-03-16 07:51:00,
2013-03-16 00:56:00,57.6,30.2,29.84,North,353,2.0,2.0,35,0.00,,,0.00,0,WeatherCatV1.11B39,2013-03-16 07:56:00,
2013-03-16 01:01:00,57.6,30.2,29.84,North,353,4.0,4.0,35,0.00,,,0.00,0,WeatherCatV1.11B39,2013-03-16 08:01:00,
2013-03-16 01:06:00,57.3,29.9,29.84,North,353,4.0,4.0,35,0.00,,,0.00,0,WeatherCatV1.11B39,2013-03-16 08:06:00,
2013-03-16 01:11:00,57.7,29.5,29.84,North,353,2.0,2.0,34,0.00,,,0.00,0,WeatherCatV1.11B39,2013-03-16 08:11:00,
2013-03-16 01:16:00,58.6,30.3,29.84,North,353,3.0,3.0,34,0.00,,,0.00,0,WeatherCatV1.11B39,2013-03-16 08:16:00,
2013-03-16 01:21:00,59.0,29.9,29.84,North,353,1.0,2.0,33,0.00,,,0.00,0,WeatherCatV1.11B39,2013-03-16 08:21:00,
2013-03-16 01:26:00,59.7,29.0,29.84,North,353,0.0,1.0,31,0.00,,,0.00,0,WeatherCatV1.11B39,2013-03-16 08:26:00,
2013-03-16 01:31:00,59.3,28.7,29.84,North,353,2.0,2.0,31,0.00,,,0.00,0,WeatherCatV1.11B39,2013-03-16 08:31:00,
2013-03-16 01:36:00,59.3,28.7,29.83,North,353,0.0,1.0,31,0.00,,,0.00,0,WeatherCatV1.11B39,2013-03-16 08:36:00,
2013-03-16 01:41:00,58.8,29.0,29.83,North,353,2.0,2.0,32,0.00,,,0.00,0,WeatherCatV1.11B39,2013-03-16 08:41:00,
2013-03-16 01:46:00,58.9,28.3,29.83,North,353,2.0,2.0,31,0.00,,,0.00,0,WeatherCatV1.11B39,2013-03-16 08:46:00,
2013-03-16 01:51:00,58.7,28.9,29.83,North,353,1.0,2.0,32,0.00,,,0.00,0,WeatherCatV1.11B39,2013-03-16 08:51:00,
2013-03-16 01:56:00,58.6,28.1,29.83,North,353,2.0,2.0,31,0.00,,,0.00,0,WeatherCatV1.11B39,2013-03-16 08:56:00,
2013-03-16 02:01:00,58.0,29.1,29.83,North,353,1.0,2.0,33,0.00,,,0.00,0,WeatherCatV1.11B39,2013-03-16 09:01:00,
2013-03-16 02:06:00,57.6,28.7,29.83,North,353,1.0,2.0,33,0.00,,,0.00,0,WeatherCatV1.11B39,2013-03-16 09:06:00,
2013-03-16 02:11:00,57.0,28.9,29.83,North,353,0.0,0.0,34,0.00,,,0.00,0,WeatherCatV1.11B39,2013-03-16 09:11:00,
2013-03-16 02:16:00,56.2,28.9,29.83,North,353,1.0,2.0,35,0.00,,,0.00,0,WeatherCatV1.11B39,2013-03-16 09:16:00,
2013-03-16 02:21:00,55.5,27.6,29.82,North,353,2.0,2.0,34,0.00,,,0.00,0,WeatherCatV1.11B39,2013-03-16 09:21:00,
2013-03-16 02:26:00,55.0,27.9,29.82,North,353,2.0,3.0,35,0.00,,,0.00,0,WeatherCatV1.11B39,2013-03-16 09:26:00,
2013-03-16 02:31:00,55.3,28.1,29.82,North,353,2.0,3.0,35,0.00,,,0.00,0,WeatherCatV1.11B39,2013-03-16 09:31:00,
2013-03-16 02:36:00,55.1,27.2,29.82,North,353,3.0,3.0,34,0.00,,,0.00,0,WeatherCatV1.11B39,2013-03-16 09:36:00,
2013-03-16 02:41:00,55.0,27.9,29.82,North,353,2.0,3.0,35,0.00,,,0.00,0,WeatherCatV1.11B39,2013-03-16 09:41:00,
2013-03-16 02:46:00,55.8,27.1,29.82,North,353,1.0,2.0,33,0.00,,,0.00,0,WeatherCatV1.11B39,2013-03-16 09:46:00,
2013-03-16 02:51:00,56.3,27.6,29.82,North,353,2.0,3.0,33,0.00,,,0.00,0,WeatherCatV1.11B39,2013-03-16 09:51:00,
2013-03-16 02:56:00,57.1,26.8,29.82,North,353,4.0,4.0,31,0.00,,,0.00,0,WeatherCatV1.11B39,2013-03-16 09:56:00,
2013-03-16 03:01:00,58.3,27.0,29.81,North,353,3.0,4.0,30,0.00,,,0.00,0,WeatherCatV1.11B39,2013-03-16 10:01:00,
2013-03-16 03:06:00,58.6,27.3,29.81,North,353,3.0,3.0,30,0.00,,,0.00,0,WeatherCatV1.11B39,2013-03-16 10:06:00,
2013-03-16 03:11:00,58.3,27.0,29.81,North,353,3.0,4.0,30,0.00,,,0.00,0,WeatherCatV1.11B39,2013-03-16 10:11:00,
2013-03-16 03:16:00,58.4,26.3,29.81,North,353,1.0,2.0,29,0.00,,,0.00,0,WeatherCatV1.11B39,2013-03-16 10:16:00,
2013-03-16 03:21:00,57.9,26.7,29.81,North,353,0.0,1.0,30,0.00,,,0.00,0,WeatherCatV1.11B39,2013-03-16 10:21:00,
2013-03-16 03:26:00,57.6,26.4,29.81,North,353,2.0,2.0,30,0.00,,,0.00,0,WeatherCatV1.11B39,2013-03-16 10:26:00,
2013-03-16 03:31:00,56.8,27.3,29.81,North,353,0.0,1.0,32,0.00,,,0.00,0,WeatherCatV1.11B39,2013-03-16 10:31:00,
2013-03-16 03:36:00,56.2,26.7,29.80,North,353,1.0,1.0,32,0.00,,,0.00,0,WeatherCatV1.11B39,2013-03-16 10:36:00,
2013-03-16 03:41:00,55.2,27.3,29.80,North,353,0.0,1.0,34,0.00,,,0.00,0,WeatherCatV1.11B39,2013-03-16 10:41:00,
2013-03-16 03:46:00,54.1,27.1,29.80,North,353,0.0,0.0,35,0.00,,,0.00,0,WeatherCatV1.11B39,2013-03-16 10:46:00,
2013-03-16 03:51:00,53.5,27.9,29.80,North,353,0.0,0.0,37,0.00,,,0.00,0,WeatherCatV1.11B39,2013-03-16 10:51:00,
2013-03-16 03:56:00,53.2,26.9,29.80,North,353,0.0,0.0,36,0.00,,,0.00,0,WeatherCatV1.11B39,2013-03-16 10:56:00,
2013-03-16 04:01:00,53.0,27.4,29.80,North,353,0.0,1.0,37,0.00,,,0.00,0,WeatherCatV1.11B39,2013-03-16 11:01:00,
2013-03-16 04:06:00,53.0,26.8,29.80,North,353,0.0,3.0,36,0.00,,,0.00,0,WeatherCatV1.11B39,2013-03-16 11:06:00,
2013-03-16 04:11:00,52.8,27.9,29.80,North,353,0.0,1.0,38,0.00,,,0.00,0,WeatherCatV1.11B39,2013-03-16 11:11:00,
2013-03-16 04:16:00,52.7,27.8,29.80,North,353,0.0,1.0,38,0.00,,,0.00,0,WeatherCatV1.11B39,2013-03-16 11:16:00,
2013-03-16 04:21:00,52.4,29.4,29.80,North,353,0.0,1.0,41,0.00,,,0.00,0,WeatherCatV1.11B39,2013-03-16 11:21:00,
2013-03-16 04:26:00,52.2,28.0,29.80,North,353,0.0,0.0,39,0.00,,,0.00,0,WeatherCatV1.11B39,2013-03-16 11:26:00,
2013-03-16 04:31:00,51.8,28.3,29.80,North,353,0.0,0.0,40,0.00,,,0.00,0,WeatherCatV1.11B39,2013-03-16 11:31:00,
2013-03-16 04:36:00,51.3,27.8,29.79,North,353,0.0,0.0,40,0.00,,,0.00,0,WeatherCatV1.11B39,2013-03-16 11:36:00,
2013-03-16 04:41:00,51.1,27.6,29.80,North,353,2.0,2.0,40,0.00,,,0.00,0,WeatherCatV1.11B39,2013-03-16 11:41:00,
2013-03-16 04:46:00,51.4,27.3,29.80,North,353,1.0,2.0,39,0.00,,,0.00,0,WeatherCatV1.11B39,2013-03-16 11:46:00,
2013-03-16 04:51:00,50.9,26.8,29.80,North,353,0.0,1.0,39,0.00,,,0.00,0,WeatherCatV1.11B39,2013-03-16 11:51:00,
2013-03-16 04:56:00,50.7,27.9,29.79,North,353,0.0,2.0,41,0.00,,,0.00,0,WeatherCatV1.11B39,2013-03-16 11:56:00,
2013-03-16 05:01:00,50.5,27.7,29.80,North,353,0.0,0.0,41,0.00,,,0.00,0,WeatherCatV1.11B39,2013-03-16 12:01:00,
2013-03-16 05:06:00,50.6,27.2,29.80,North,353,1.0,2.0,40,0.00,,,0.00,0,WeatherCatV1.11B39,2013-03-16 12:06:00,
2013-03-16 05:11:00,50.4,27.0,29.80,North,353,1.0,2.0,40,0.00,,,0.00,0,WeatherCatV1.11B39,2013-03-16 12:11:00,
2013-03-16 05:16:00,50.7,27.3,29.80,North,353,0.0,0.0,40,0.00,,,0.00,0,WeatherCatV1.11B39,2013-03-16 12:16:00,
2013-03-16 05:21:00,50.7,27.3,29.80,North,353,0.0,0.0,40,0.00,,,0.00,0,WeatherCatV1.11B39,2013-03-16 12:21:00,
2013-03-16 05:26:00,50.4,27.6,29.80,North,353,0.0,0.0,41,0.00,,,0.00,0,WeatherCatV1.11B39,2013-03-16 12:26:00,
2013-03-16 05:31:00,50.3,26.9,29.80,North,353,1.0,1.0,40,0.00,,,0.00,0,WeatherCatV1.11B39,2013-03-16 12:31:00,
2013-03-16 05:36:00,49.8,27.1,29.80,North,353,0.0,1.0,41,0.00,,,0.00,0,WeatherCatV1.11B39,2013-03-16 12:36:00,
2013-03-16 05:41:00,50.0,26.6,29.80,North,353,0.0,0.0,40,0.00,,,0.00,0,WeatherCatV1.11B39,2013-03-16 12:41:00,
2013-03-16 05:46:00,49.9,27.7,29.80,North,353,0.0,1.0,42,0.00,,,0.00,0,WeatherCatV1.11B39,2013-03-16 12:46:00,
2013-03-16 05:51:00,49.7,27.6,29.80,North,353,0.0,0.0,42,0.00,,,0.00,0,WeatherCatV1.11B39,2013-03-16 12:51:00,
2013-03-16 05:56:00,49.5,27.4,29.80,North,353,0.0,0.0,42,0.00,,,0.00,0,WeatherCatV1.11B39,2013-03-16 12:56:00,
2013-03-16 06:02:00,49.1,28.1,29.80,North,353,0.0,0.0,44,0.00,,,0.00,0,WeatherCatV1.11B39,2013-03-16 13:02:00,
2013-03-16 06:07:00,48.9,27.4,29.80,North,353,0.0,0.0,43,0.00,,,0.00,0,WeatherCatV1.11B39,2013-03-16 13:07:00,
2013-03-16 06:12:00,48.4,28.0,29.80,North,353,2.0,2.0,45,0.00,,,0.00,0,WeatherCatV1.11B39,2013-03-16 13:12:00,
2013-03-16 06:17:00,48.2,27.9,29.80,North,353,1.0,3.0,45,0.00,,,0.00,0,WeatherCatV1.11B39,2013-03-16 13:17:00,
2013-03-16 06:22:00,48.2,27.9,29.80,North,353,0.0,0.0,45,0.00,,,0.00,0,WeatherCatV1.11B39,2013-03-16 13:22:00,
2013-03-16 06:27:00,48.3,28.0,29.80,North,353,2.0,2.0,45,0.00,,,0.00,0,WeatherCatV1.11B39,2013-03-16 13:27:00,
2013-03-16 06:32:00,48.3,27.4,29.81,North,353,3.0,3.0,44,0.00,,,0.00,5,WeatherCatV1.11B39,2013-03-16 13:32:00,
2013-03-16 06:37:00,48.2,27.3,29.81,North,353,3.0,3.0,44,0.00,,,0.00,9,WeatherCatV1.11B39,2013-03-16 13:37:00,
2013-03-16 06:42:00,50.0,27.8,29.81,North,353,0.0,1.0,42,0.00,,,0.00,11,WeatherCatV1.11B39,2013-03-16 13:42:00,
2013-03-16 06:47:00,50.7,28.5,29.81,North,353,2.0,3.0,42,0.00,,,0.00,12,WeatherCatV1.11B39,2013-03-16 13:47:00,
2013-03-16 06:52:00,50.6,27.2,29.81,North,353,1.0,1.0,40,0.00,,,0.00,16,WeatherCatV1.11B39,2013-03-16 13:52:00,
2013-03-16 06:57:00,50.8,27.4,29.81,North,353,1.0,1.0,40,0.00,,,0.00,21,WeatherCatV1.11B39,2013-03-16 13:57:00,
2013-03-16 07:02:00,50.8,28.0,29.80,North,353,0.0,2.0,41,0.00,,,0.00,28,WeatherCatV1.11B39,2013-03-16 14:02:00,
2013-03-16 07:07:00,50.8,28.0,29.80,North,353,1.0,2.0,41,0.00,,,0.00,62,WeatherCatV1.11B39,2013-03-16 14:07:00,
2013-03-16 07:12:00,51.8,28.3,29.81,North,353,0.0,1.0,40,0.00,,,0.00,77,WeatherCatV1.11B39,2013-03-16 14:12:00,
2013-03-16 07:17:00,53.1,28.8,29.80,North,353,0.0,0.0,39,0.00,,,0.00,97,WeatherCatV1.11B39,2013-03-16 14:17:00,
2013-03-16 07:22:00,55.4,28.9,29.80,North,353,0.0,0.0,36,0.00,,,0.00,120,WeatherCatV1.11B39,2013-03-16 14:22:00,
2013-03-16 07:27:00,57.1,29.7,29.81,North,353,2.0,2.0,35,0.00,,,0.00,141,WeatherCatV1.11B39,2013-03-16 14:27:00,
2013-03-16 07:32:00,58.7,28.9,29.81,North,353,2.0,2.0,32,0.00,,,0.00,162,WeatherCatV1.11B39,2013-03-16 14:32:00,
2013-03-16 07:37:00,59.4,29.5,29.81,North,353,2.0,2.0,32,0.00,,,0.00,185,WeatherCatV1.11B39,2013-03-16 14:37:00,
2013-03-16 07:42:00,60.1,30.1,29.81,North,353,1.0,1.0,32,0.00,,,0.00,200,WeatherCatV1.11B39,2013-03-16 14:42:00,
2013-03-16 07:47:00,60.9,29.3,29.81,North,353,1.0,2.0,30,0.00,,,0.00,218,WeatherCatV1.11B39,2013-03-16 14:47:00,
2013-03-16 07:52:00,61.8,30.0,29.81,North,353,0.0,1.0,30,0.00,,,0.00,237,WeatherCatV1.11B39,2013-03-16 14:52:00,
2013-03-16 07:57:00,63.0,30.2,29.81,North,353,1.0,1.0,29,0.00,,,0.00,257,WeatherCatV1.11B39,2013-03-16 14:57:00,
2013-03-16 08:02:00,64.0,30.2,29.81,North,353,0.0,0.0,28,0.00,,,0.00,274,WeatherCatV1.11B39,2013-03-16 15:02:00,
2013-03-16 08:07:00,65.0,29.3,29.81,North,353,0.0,1.0,26,0.00,,,0.00,294,WeatherCatV1.11B39,2013-03-16 15:07:00,
2013-03-16 08:12:00,66.5,30.6,29.81,North,353,0.0,0.0,26,0.00,,,0.00,313,WeatherCatV1.11B39,2013-03-16 15:12:00,
2013-03-16 08:17:00,67.8,30.7,29.81,North,353,0.0,1.0,25,0.00,,,0.00,330,WeatherCatV1.11B39,2013-03-16 15:17:00,
2013-03-16 08:22:00,69.1,29.7,29.81,North,353,0.0,0.0,23,0.00,,,0.00,350,WeatherCatV1.11B39,2013-03-16 15:22:00,
2013-03-16 08:27:00,70.7,28.8,29.81,North,353,0.0,1.0,21,0.00,,,0.00,367,WeatherCatV1.11B39,2013-03-16 15:27:00,
2013-03-16 08:32:00,72.1,30.0,29.81,North,353,1.0,3.0,21,0.00,,,0.00,387,WeatherCatV1.11B39,2013-03-16 15:32:00,
2013-03-16 08:37:00,72.6,29.2,29.81,North,353,1.0,2.0,20,0.00,,,0.00,413,WeatherCatV1.11B39,2013-03-16 15:37:00,
2013-03-16 08:42:00,73.6,24.6,29.81,North,353,0.0,0.0,16,0.00,,,0.00,434,WeatherCatV1.11B39,2013-03-16 15:42:00,
2013-03-16 08:47:00,74.7,22.3,29.81,North,353,1.0,2.0,14,0.00,,,0.00,438,WeatherCatV1.11B39,2013-03-16 15:47:00,
2013-03-16 08:52:00,75.3,21.1,29.81,NW,321,0.0,4.0,13,0.00,,,0.00,436,WeatherCatV1.11B39,2013-03-16 15:52:00,
2013-03-16 08:57:00,75.3,19.2,29.81,NW,321,1.0,1.0,12,0.00,,,0.00,485,WeatherCatV1.11B39,2013-03-16 15:57:00,
2013-03-16 09:02:00,75.3,19.2,29.81,NW,321,2.0,4.0,12,0.00,,,0.00,496,WeatherCatV1.11B39,2013-03-16 16:02:00,
2013-03-16 09:07:00,75.7,19.5,29.81,NW,321,3.0,3.0,12,0.00,,,0.00,438,WeatherCatV1.11B39,2013-03-16 16:07:00,
2013-03-16 09:12:00,76.7,20.3,29.81,NW,321,1.0,3.0,12,0.00,,,0.00,529,WeatherCatV1.11B39,2013-03-16 16:12:00,
2013-03-16 09:17:00,76.6,20.2,29.81,West,274,5.0,5.0,12,0.00,,,0.00,545,WeatherCatV1.11B39,2013-03-16 16:17:00,
2013-03-16 09:22:00,76.1,19.8,29.81,West,273,0.0,0.0,12,0.00,,,0.00,561,WeatherCatV1.11B39,2013-03-16 16:22:00,
2013-03-16 09:27:00,76.7,18.2,29.81,West,274,0.0,3.0,11,0.00,,,0.00,578,WeatherCatV1.11B39,2013-03-16 16:27:00,
2013-03-16 09:32:00,77.7,19.0,29.81,WNW,288,2.0,3.0,11,0.00,,,0.00,592,WeatherCatV1.11B39,2013-03-16 16:32:00,
2013-03-16 09:37:00,77.0,18.5,29.81,WNW,288,0.0,0.0,11,0.00,,,0.00,610,WeatherCatV1.11B39,2013-03-16 16:37:00,
2013-03-16 09:42:00,77.3,18.7,29.81,WNW,288,0.0,1.0,11,0.00,,,0.00,621,WeatherCatV1.11B39,2013-03-16 16:42:00,
2013-03-16 09:47:00,77.5,18.9,29.81,South,186,3.0,4.0,11,0.00,,,0.00,636,WeatherCatV1.11B39,2013-03-16 16:47:00,
2013-03-16 09:52:00,78.5,19.6,29.81,South,188,4.0,4.0,11,0.00,,,0.00,652,WeatherCatV1.11B39,2013-03-16 16:52:00,
2013-03-16 09:57:00,78.4,19.5,29.81,South,190,2.0,3.0,11,0.00,,,0.00,664,WeatherCatV1.11B39,2013-03-16 16:57:00,
2013-03-16 10:02:00,78.7,17.6,29.81,South,185,3.0,5.0,10,0.00,,,0.00,680,WeatherCatV1.11B39,2013-03-16 17:02:00,
2013-03-16 10:07:00,79.0,17.8,29.80,SSW,203,4.0,5.0,10,0.00,,,0.00,698,WeatherCatV1.11B39,2013-03-16 17:07:00,
2013-03-16 10:12:00,78.9,17.7,29.80,SSE,161,3.0,5.0,10,0.00,,,0.00,715,WeatherCatV1.11B39,2013-03-16 17:12:00,
2013-03-16 10:17:00,78.3,19.5,29.80,South,175,5.0,6.0,11,0.00,,,0.00,735,WeatherCatV1.11B39,2013-03-16 17:17:00,
2013-03-16 10:22:00,78.7,17.6,29.80,South,181,0.0,3.0,10,0.00,,,0.00,765,WeatherCatV1.11B39,2013-03-16 17:22:00,
2013-03-16 10:27:00,79.6,20.5,29.80,South,181,0.0,3.0,11,0.00,,,0.00,816,WeatherCatV1.11B39,2013-03-16 17:27:00,
2013-03-16 10:32:00,79.4,20.3,29.80,South,175,2.0,3.0,11,0.00,,,0.00,824,WeatherCatV1.11B39,2013-03-16 17:32:00,
2013-03-16 10:37:00,80.3,21.0,29.79,South,172,1.0,1.0,11,0.00,,,0.00,886,WeatherCatV1.11B39,2013-03-16 17:37:00,
2013-03-16 10:42:00,80.4,21.1,29.79,South,170,3.0,3.0,11,0.00,,,0.00,693,WeatherCatV1.11B39,2013-03-16 17:42:00,
2013-03-16 10:47:00,80.8,21.4,29.79,SSW,208,3.0,6.0,11,0.00,,,0.00,728,WeatherCatV1.11B39,2013-03-16 17:47:00,
2013-03-16 10:52:00,80.7,21.3,29.79,SSE,159,5.0,8.0,11,0.00,,,0.00,635,WeatherCatV1.11B39,2013-03-16 17:52:00,
2013-03-16 10:57:00,80.1,20.9,29.79,SE,142,0.0,3.0,11,0.00,,,0.00,519,WeatherCatV1.11B39,2013-03-16 17:57:00,
2013-03-16 11:02:00,80.6,21.2,29.79,SE,137,1.0,4.0,11,0.00,,,0.00,654,WeatherCatV1.11B39,2013-03-16 18:02:00,
2013-03-16 11:07:00,80.0,20.8,29.78,SE,138,2.0,3.0,11,0.00,,,0.00,578,WeatherCatV1.11B39,2013-03-16 18:07:00,
2013-03-16 11:12:00,80.8,21.4,29.78,NNW,334,4.0,6.0,11,0.00,,,0.00,596,WeatherCatV1.11B39,2013-03-16 18:12:00,
2013-03-16 11:17:00,80.9,21.5,29.78,NNW,348,6.0,6.0,11,0.00,,,0.00,446,WeatherCatV1.11B39,2013-03-16 18:17:00,
2013-03-16 11:22:00,81.5,21.9,29.78,NNW,348,1.0,2.0,11,0.00,,,0.00,921,WeatherCatV1.11B39,2013-03-16 18:22:00,
2013-03-16 11:27:00,82.9,23.0,29.78,SW,228,5.0,6.0,11,0.00,,,0.00,951,WeatherCatV1.11B39,2013-03-16 18:27:00,
2013-03-16 11:32:00,83.3,23.3,29.77,SW,214,3.0,8.0,11,0.00,,,0.00,751,WeatherCatV1.11B39,2013-03-16 18:32:00,
2013-03-16 11:37:00,82.6,22.8,29.77,SSW,197,1.0,7.0,11,0.00,,,0.00,367,WeatherCatV1.11B39,2013-03-16 18:37:00,
2013-03-16 11:42:00,82.7,22.8,29.77,SSW,208,1.0,8.0,11,0.00,,,0.00,1025,WeatherCatV1.11B39,2013-03-16 18:42:00,
2013-03-16 11:47:00,82.6,22.8,29.76,West,272,3.0,4.0,11,0.00,,,0.00,1127,WeatherCatV1.11B39,2013-03-16 18:47:00,
2013-03-16 11:52:00,82.9,23.0,29.76,NNW,330,6.0,10.0,11,0.00,,,0.00,540,WeatherCatV1.11B39,2013-03-16 18:52:00,
2013-03-16 11:57:00,82.2,22.5,29.76,NW,307,6.0,6.0,11,0.00,,,0.00,570,WeatherCatV1.11B39,2013-03-16 18:57:00,
2013-03-16 12:02:00,81.6,24.1,29.76,NW,314,5.0,8.0,12,0.00,,,0.00,626,WeatherCatV1.11B39,2013-03-16 19:02:00,
2013-03-16 12:07:00,82.0,22.3,29.75,West,278,4.0,5.0,11,0.00,,,0.00,700,WeatherCatV1.11B39,2013-03-16 19:07:00,
2013-03-16 12:12:00,82.0,22.3,29.75,NNW,332,2.0,2.0,11,0.00,,,0.00,670,WeatherCatV1.11B39,2013-03-16 19:12:00,
2013-03-16 12:17:00,82.7,22.8,29.75,SW,217,5.0,5.0,11,0.00,,,0.00,882,WeatherCatV1.11B39,2013-03-16 19:17:00,
2013-03-16 12:22:00,83.8,23.7,29.74,SW,218,3.0,7.0,11,0.00,,,0.00,649,WeatherCatV1.11B39,2013-03-16 19:22:00,
2013-03-16 12:27:00,84.0,21.6,29.74,West,263,3.0,11.0,10,0.00,,,0.00,670,WeatherCatV1.11B39,2013-03-16 19:27:00,
2013-03-16 12:32:00,83.5,21.2,29.74,NW,313,2.0,7.0,10,0.00,,,0.00,740,WeatherCatV1.11B39,2013-03-16 19:32:00,
2013-03-16 12:37:00,83.3,21.0,29.74,WSW,237,5.0,10.0,10,0.00,,,0.00,738,WeatherCatV1.11B39,2013-03-16 19:37:00,
2013-03-16 12:42:00,83.4,21.1,29.73,WNW,298,4.0,6.0,10,0.00,,,0.00,738,WeatherCatV1.11B39,2013-03-16 19:42:00,
2013-03-16 12:47:00,83.7,21.4,29.73,WNW,286,7.0,7.0,10,0.00,,,0.00,793,WeatherCatV1.11B39,2013-03-16 19:47:00,
2013-03-16 12:52:00,84.5,22.0,29.73,WSW,257,4.0,8.0,10,0.00,,,0.00,649,WeatherCatV1.11B39,2013-03-16 19:52:00,
2013-03-16 12:57:00,84.5,22.0,29.72,WNW,286,0.0,4.0,10,0.00,,,0.00,624,WeatherCatV1.11B39,2013-03-16 19:57:00,
2013-03-16 13:02:00,84.7,22.1,29.72,WNW,287,8.0,9.0,10,0.00,,,0.00,559,WeatherCatV1.11B39,2013-03-16 20:02:00,
2013-03-16 13:07:00,84.1,21.7,29.72,WSW,238,2.0,4.0,10,0.00,,,0.00,568,WeatherCatV1.11B39,2013-03-16 20:07:00,
2013-03-16 13:12:00,84.2,21.7,29.71,WSW,242,3.0,7.0,10,0.00,,,0.00,441,WeatherCatV1.11B39,2013-03-16 20:12:00,
2013-03-16 13:17:00,84.8,22.2,29.71,SW,224,5.0,8.0,10,0.00,,,0.00,599,WeatherCatV1.11B39,2013-03-16 20:17:00,
2013-03-16 13:22:00,85.7,22.9,29.70,SW,226,6.0,7.0,10,0.00,,,0.00,1000,WeatherCatV1.11B39,2013-03-16 20:22:00,
2013-03-16 13:27:00,86.1,23.2,29.70,WSW,239,5.0,7.0,10,0.00,,,0.00,773,WeatherCatV1.11B39,2013-03-16 20:27:00,
2013-03-16 13:32:00,86.0,23.1,29.70,WSW,255,9.0,10.0,10,0.00,,,0.00,923,WeatherCatV1.11B39,2013-03-16 20:32:00,
2013-03-16 13:37:00,86.1,20.7,29.69,WNW,290,11.0,12.0,9,0.00,,,0.00,886,WeatherCatV1.11B39,2013-03-16 20:37:00,
2013-03-16 13:42:00,86.5,21.0,29.69,SSW,201,6.0,9.0,9,0.00,,,0.00,642,WeatherCatV1.11B39,2013-03-16 20:42:00,
2013-03-16 13:47:00,86.0,20.6,29.68,WSW,255,3.0,6.0,9,0.00,,,0.00,615,WeatherCatV1.11B39,2013-03-16 20:47:00,
2013-03-16 13:52:00,85.9,20.5,29.68,WSW,237,5.0,5.0,9,0.00,,,0.00,647,WeatherCatV1.11B39,2013-03-16 20:52:00,
2013-03-16 13:57:00,88.5,22.5,29.68,WSW,251,8.0,19.0,9,0.00,,,0.00,838,WeatherCatV1.11B39,2013-03-16 20:57:00,
2013-03-16 14:02:00,88.4,19.6,29.67,WSW,255,8.0,10.0,8,0.00,,,0.00,930,WeatherCatV1.11B39,2013-03-16 21:02:00,
2013-03-16 14:07:00,87.7,19.1,29.67,SSW,203,3.0,11.0,8,0.00,,,0.00,663,WeatherCatV1.11B39,2013-03-16 21:07:00,
2013-03-16 14:12:00,88.1,19.4,29.67,SSW,213,3.0,14.0,8,0.00,,,0.00,599,WeatherCatV1.11B39,2013-03-16 21:12:00,
2013-03-16 14:17:00,87.9,22.0,29.66,NW,316,4.0,10.0,9,0.00,,,0.00,766,WeatherCatV1.11B39,2013-03-16 21:17:00,
2013-03-16 14:22:00,87.2,18.7,29.66,NW,313,6.0,12.0,8,0.00,,,0.00,851,WeatherCatV1.11B39,2013-03-16 21:22:00,
2013-03-16 14:27:00,87.1,18.7,29.66,WNW,284,7.0,11.0,8,0.00,,,0.00,837,WeatherCatV1.11B39,2013-03-16 21:27:00,
2013-03-16 14:32:00,87.8,19.2,29.66,WNW,284,9.0,9.0,8,0.00,,,0.00,737,WeatherCatV1.11B39,2013-03-16 21:32:00,
2013-03-16 14:37:00,88.5,19.7,29.65,WNW,295,9.0,9.0,8,0.00,,,0.00,701,WeatherCatV1.11B39,2013-03-16 21:37:00,
2013-03-16 14:42:00,88.0,19.3,29.65,WNW,300,11.0,14.0,8,0.00,,,0.00,788,WeatherCatV1.11B39,2013-03-16 21:42:00,
2013-03-16 14:47:00,88.1,16.3,29.65,West,263,7.0,21.0,7,0.00,,,0.00,777,WeatherCatV1.11B39,2013-03-16 21:47:00,
2013-03-16 14:52:00,87.8,12.6,29.65,West,272,16.0,19.0,6,0.00,,,0.00,758,WeatherCatV1.11B39,2013-03-16 21:52:00,
2013-03-16 14:57:00,87.8,12.6,29.65,West,259,7.0,14.0,6,0.00,,,0.00,712,WeatherCatV1.11B39,2013-03-16 21:57:00,
2013-03-16 15:02:00,88.3,12.9,29.64,WSW,251,4.0,9.0,6,0.00,,,0.00,721,WeatherCatV1.11B39,2013-03-16 22:02:00,
2013-03-16 15:07:00,88.6,13.2,29.64,WSW,255,8.0,19.0,6,0.00,,,0.00,694,WeatherCatV1.11B39,2013-03-16 22:07:00,
2013-03-16 15:12:00,87.9,12.7,29.64,WSW,255,10.0,14.0,6,0.00,,,0.00,671,WeatherCatV1.11B39,2013-03-16 22:12:00,
2013-03-16 15:17:00,88.6,13.2,29.64,SW,219,13.0,18.0,6,0.00,,,0.00,652,WeatherCatV1.11B39,2013-03-16 22:17:00,
2013-03-16 15:22:00,88.9,13.4,29.64,SW,225,8.0,14.0,6,0.00,,,0.00,638,WeatherCatV1.11B39,2013-03-16 22:22:00,
2013-03-16 15:27:00,89.0,13.4,29.64,West,280,7.0,15.0,6,0.00,,,0.00,626,WeatherCatV1.11B39,2013-03-16 22:27:00,
2013-03-16 15:32:00,89.0,13.4,29.64,West,259,6.0,12.0,6,0.00,,,0.00,610,WeatherCatV1.11B39,2013-03-16 22:32:00,
2013-03-16 15:37:00,88.4,13.0,29.64,SW,231,13.0,17.0,6,0.00,,,0.00,592,WeatherCatV1.11B39,2013-03-16 22:37:00,
2013-03-16 15:42:00,88.0,8.6,29.64,SW,217,10.0,16.0,5,0.00,,,0.00,578,WeatherCatV1.11B39,2013-03-16 22:42:00,
2013-03-16 15:47:00,88.3,8.9,29.63,WSW,242,9.0,11.0,5,0.00,,,0.00,564,WeatherCatV1.11B39,2013-03-16 22:47:00,
2013-03-16 15:52:00,88.2,8.8,29.63,WSW,255,9.0,15.0,5,0.00,,,0.00,548,WeatherCatV1.11B39,2013-03-16 22:52:00,
2013-03-16 15:57:00,88.5,9.0,29.63,SW,236,8.0,10.0,5,0.00,,,0.00,529,WeatherCatV1.11B39,2013-03-16 22:57:00,
2013-03-16 16:02:00,88.3,8.9,29.63,WSW,240,12.0,17.0,5,0.00,,,0.00,513,WeatherCatV1.11B39,2013-03-16 23:02:00,
2013-03-16 16:07:00,87.6,8.4,29.63,West,261,5.0,16.0,5,0.00,,,0.00,489,WeatherCatV1.11B39,2013-03-16 23:07:00,
2013-03-16 16:12:00,87.6,8.4,29.63,WSW,255,7.0,16.0,5,0.00,,,0.00,476,WeatherCatV1.11B39,2013-03-16 23:12:00,
2013-03-16 16:17:00,87.2,8.1,29.63,West,274,16.0,16.0,5,0.00,,,0.00,462,WeatherCatV1.11B39,2013-03-16 23:17:00,
2013-03-16 16:22:00,87.3,12.2,29.62,WSW,255,10.0,14.0,6,0.00,,,0.00,441,WeatherCatV1.11B39,2013-03-16 23:22:00,
2013-03-16 16:27:00,87.6,12.4,29.63,WNW,284,7.0,13.0,6,0.00,,,0.00,424,WeatherCatV1.11B39,2013-03-16 23:27:00,
2013-03-16 16:32:00,88.1,8.7,29.63,WNW,288,6.0,15.0,5,0.00,,,0.00,408,WeatherCatV1.11B39,2013-03-16 23:32:00,
2013-03-16 16:37:00,87.8,8.5,29.63,West,277,12.0,19.0,5,0.00,,,0.00,387,WeatherCatV1.11B39,2013-03-16 23:37:00,
2013-03-16 16:42:00,86.7,7.7,29.63,WNW,301,14.0,18.0,5,0.00,,,0.00,369,WeatherCatV1.11B39,2013-03-16 23:42:00,
2013-03-16 16:47:00,86.9,11.9,29.63,WSW,242,10.0,19.0,6,0.00,,,0.00,352,WeatherCatV1.11B39,2013-03-16 23:47:00,
2013-03-16 16:52:00,86.7,7.7,29.63,SW,224,9.0,19.0,5,0.00,,,0.00,330,WeatherCatV1.11B39,2013-03-16 23:52:00,
2013-03-16 16:57:00,86.2,7.4,29.63,WSW,238,10.0,20.0,5,0.00,,,0.00,311,WeatherCatV1.11B39,2013-03-16 23:57:00,
2013-03-16 17:02:00,86.0,11.3,29.63,WSW,247,11.0,13.0,6,0.00,,,0.00,292,WeatherCatV1.11B39,2013-03-17 00:02:00,
2013-03-16 17:07:00,86.1,11.4,29.64,WSW,249,12.0,15.0,6,0.00,,,0.00,271,WeatherCatV1.11B39,2013-03-17 00:07:00,
2013-03-16 17:12:00,85.6,11.0,29.64,West,276,11.0,18.0,6,0.00,,,0.00,253,WeatherCatV1.11B39,2013-03-17 00:12:00,
2013-03-16 17:17:00,85.3,10.8,29.64,West,260,8.0,12.0,6,0.00,,,0.00,234,WeatherCatV1.11B39,2013-03-17 00:17:00,
2013-03-16 17:22:00,85.3,10.8,29.64,WSW,255,8.0,15.0,6,0.00,,,0.00,207,WeatherCatV1.11B39,2013-03-17 00:22:00,
2013-03-16 17:27:00,85.0,10.6,29.64,NW,315,12.0,15.0,6,0.00,,,0.00,188,WeatherCatV1.11B39,2013-03-17 00:27:00,
2013-03-16 17:32:00,84.6,10.3,29.64,WNW,284,11.0,22.0,6,0.00,,,0.00,165,WeatherCatV1.11B39,2013-03-17 00:32:00,
2013-03-16 17:37:00,84.1,9.9,29.64,WNW,291,10.0,20.0,6,0.00,,,0.00,141,WeatherCatV1.11B39,2013-03-17 00:37:00,
2013-03-16 17:42:00,83.8,9.7,29.64,NW,306,11.0,17.0,6,0.00,,,0.00,120,WeatherCatV1.11B39,2013-03-17 00:42:00,
2013-03-16 17:47:00,83.6,9.6,29.65,WNW,282,13.0,19.0,6,0.00,,,0.00,100,WeatherCatV1.11B39,2013-03-17 00:47:00,
2013-03-16 17:52:00,83.1,9.2,29.65,WNW,284,11.0,18.0,6,0.00,,,0.00,77,WeatherCatV1.11B39,2013-03-17 00:52:00,
2013-03-16 17:57:00,82.8,12.5,29.65,West,266,11.0,16.0,7,0.00,,,0.00,62,WeatherCatV1.11B39,2013-03-17 00:57:00,
2013-03-16 18:02:00,82.4,12.2,29.65,West,261,9.0,13.0,7,0.00,,,0.00,47,WeatherCatV1.11B39,2013-03-17 01:02:00,
2013-03-16 18:07:00,82.0,11.9,29.66,West,261,6.0,19.0,7,0.00,,,0.00,33,WeatherCatV1.11B39,2013-03-17 01:07:00,
2013-03-16 18:12:00,81.6,11.6,29.66,WNW,294,11.0,19.0,7,0.00,,,0.00,25,WeatherCatV1.11B39,2013-03-17 01:12:00,
2013-03-16 18:17:00,81.3,14.4,29.66,WNW,284,11.0,16.0,8,0.00,,,0.00,18,WeatherCatV1.11B39,2013-03-17 01:17:00,
2013-03-16 18:22:00,81.0,14.2,29.66,West,274,16.0,17.0,8,0.00,,,0.00,12,WeatherCatV1.11B39,2013-03-17 01:22:00,
2013-03-16 18:27:00,80.5,13.8,29.66,WNW,295,14.0,19.0,8,0.00,,,0.00,9,WeatherCatV1.11B39,2013-03-17 01:27:00,
2013-03-16 18:32:00,80.3,13.6,29.67,West,265,9.0,14.0,8,0.00,,,0.00,7,WeatherCatV1.11B39,2013-03-17 01:32:00,
2013-03-16 18:37:00,79.9,13.4,29.67,West,267,9.0,10.0,8,0.00,,,0.00,0,WeatherCatV1.11B39,2013-03-17 01:37:00,
2013-03-16 18:42:00,79.5,15.7,29.67,West,261,6.0,10.0,9,0.00,,,0.00,0,WeatherCatV1.11B39,2013-03-17 01:42:00,
2013-03-16 18:47:00,79.2,15.5,29.67,West,270,8.0,13.0,9,0.00,,,0.00,0,WeatherCatV1.11B39,2013-03-17 01:47:00,
2013-03-16 18:52:00,78.9,17.7,29.67,WNW,293,13.0,14.0,10,0.00,,,0.00,0,WeatherCatV1.11B39,2013-03-17 01:52:00,
2013-03-16 18:57:00,78.5,17.4,29.68,West,261,13.0,17.0,10,0.00,,,0.00,0,WeatherCatV1.11B39,2013-03-17 01:57:00,
2013-03-16 19:02:00,78.3,17.3,29.68,WNW,284,5.0,15.0,10,0.00,,,0.00,0,WeatherCatV1.11B39,2013-03-17 02:02:00,
2013-03-16 19:07:00,77.8,16.9,29.68,West,281,7.0,13.0,10,0.00,,,0.00,0,WeatherCatV1.11B39,2013-03-17 02:07:00,
2013-03-16 19:12:00,77.6,18.9,29.68,WNW,287,7.0,14.0,11,0.00,,,0.00,0,WeatherCatV1.11B39,2013-03-17 02:12:00,
2013-03-16 19:17:00,77.3,18.7,29.68,WNW,297,10.0,17.0,11,0.00,,,0.00,0,WeatherCatV1.11B39,2013-03-17 02:17:00,
2013-03-16 19:22:00,77.3,18.7,29.68,West,276,8.0,11.0,11,0.00,,,0.00,0,WeatherCatV1.11B39,2013-03-17 02:22:00,
2013-03-16 19:27:00,76.9,18.4,29.68,WNW,293,5.0,14.0,11,0.00,,,0.00,0,WeatherCatV1.11B39,2013-03-17 02:27:00,
2013-03-16 19:32:00,76.5,18.1,29.68,West,262,9.0,12.0,11,0.00,,,0.00,0,WeatherCatV1.11B39,2013-03-17 02:32:00,
2013-03-16 19:37:00,76.1,17.8,29.68,West,272,6.0,13.0,11,0.00,,,0.00,0,WeatherCatV1.11B39,2013-03-17 02:37:00,
2013-03-16 19:42:00,75.7,17.5,29.68,West,280,6.0,10.0,11,0.00,,,0.00,0,WeatherCatV1.11B39,2013-03-17 02:42:00,
2013-03-16 19:47:00,75.3,19.2,29.69,West,274,7.0,9.0,12,0.00,,,0.00,0,WeatherCatV1.11B39,2013-03-17 02:47:00,
2013-03-16 19:52:00,75.1,19.0,29.69,WNW,288,4.0,10.0,12,0.00,,,0.00,0,WeatherCatV1.11B39,2013-03-17 02:52:00,
2013-03-16 19:57:00,74.6,18.6,29.69,WNW,285,4.0,6.0,12,0.00,,,0.00,0,WeatherCatV1.11B39,2013-03-17 02:57:00,
2013-03-16 20:02:00,74.0,20.0,29.69,West,267,5.0,6.0,13,0.00,,,0.00,0,WeatherCatV1.11B39,2013-03-17 03:02:00,
2013-03-16 20:07:00,73.5,19.6,29.70,West,260,6.0,7.0,13,0.00,,,0.00,0,WeatherCatV1.11B39,2013-03-17 03:07:00,
2013-03-16 20:12:00,73.3,19.5,29.70,West,276,3.0,8.0,13,0.00,,,0.00,0,WeatherCatV1.11B39,2013-03-17 03:12:00,
2013-03-16 20:17:00,73.4,19.6,29.70,West,272,4.0,14.0,13,0.00,,,0.00,0,WeatherCatV1.11B39,2013-03-17 03:17:00,
2013-03-16 20:22:00,74.0,20.0,29.71,West,263,9.0,9.0,13,0.00,,,0.00,0,WeatherCatV1.11B39,2013-03-17 03:22:00,
2013-03-16 20:27:00,74.2,20.2,29.71,West,259,6.0,11.0,13,0.00,,,0.00,0,WeatherCatV1.11B39,2013-03-17 03:27:00,
2013-03-16 20:32:00,74.2,20.2,29.71,WSW,249,6.0,11.0,13,0.00,,,0.00,0,WeatherCatV1.11B39,2013-03-17 03:32:00,
2013-03-16 20:37:00,74.1,20.1,29.71,West,278,8.0,11.0,13,0.00,,,0.00,0,WeatherCatV1.11B39,2013-03-17 03:37:00,
2013-03-16 20:42:00,74.0,21.8,29.71,WSW,255,6.0,7.0,14,0.00,,,0.00,0,WeatherCatV1.11B39,2013-03-17 03:42:00,
2013-03-16 20:47:00,73.7,21.5,29.72,West,265,5.0,7.0,14,0.00,,,0.00,0,WeatherCatV1.11B39,2013-03-17 03:47:00,
2013-03-16 20:52:00,73.1,21.1,29.72,West,263,5.0,8.0,14,0.00,,,0.00,0,WeatherCatV1.11B39,2013-03-17 03:52:00,
2013-03-16 20:57:00,72.9,22.5,29.72,West,266,3.0,5.0,15,0.00,,,0.00,0,WeatherCatV1.11B39,2013-03-17 03:57:00,
2013-03-16 21:00:00,72.9,22.5,29.72,West,269,3.0,3.0,15,0.00,,,0.00,0,WeatherCatV1.11B39,2013-03-17 04:00:00,
2013-03-16 21:05:00,72.7,23.9,29.73,WSW,258,4.0,8.0,16,0.00,,,0.00,0,WeatherCatV1.11B39,2013-03-17 04:05:00,
2013-03-16 21:10:00,72.7,23.9,29.73,WSW,242,6.0,7.0,16,0.00,,,0.00,0,WeatherCatV1.11B39,2013-03-17 04:10:00,
2013-03-16 21:11:00,72.6,23.8,29.72,WSW,245,3.0,7.0,16,0.00,,,0.00,0,WeatherCatV1.11B39,2013-03-17 04:11:00,
2013-03-16 21:16:00,72.5,23.8,29.73,SW,224,3.0,8.0,16,0.00,,,0.00,0,WeatherCatV1.11B39,2013-03-17 04:16:00,
2013-03-16 21:21:00,72.0,23.4,29.73,West,263,5.0,6.0,16,0.00,,,0.00,0,WeatherCatV1.11B39,2013-03-17 04:21:00,
2013-03-16 21:26:00,71.7,24.6,29.74,WSW,257,1.0,5.0,17,0.00,,,0.00,0,WeatherCatV1.11B39,2013-03-17 04:26:00,
2013-03-16 21:31:00,71.5,24.4,29.74,West,281,7.0,7.0,17,0.00,,,0.00,0,WeatherCatV1.11B39,2013-03-17 04:31:00,
2013-03-16 21:36:00,71.5,24.4,29.74,WNW,282,2.0,4.0,17,0.00,,,0.00,0,WeatherCatV1.11B39,2013-03-17 04:36:00,
2013-03-16 21:41:00,70.7,25.1,29.74,WNW,282,1.0,2.0,18,0.00,,,0.00,0,WeatherCatV1.11B39,2013-03-17 04:41:00,
2013-03-16 21:46:00,69.6,24.2,29.75,WNW,282,1.0,2.0,18,0.00,,,0.00,0,WeatherCatV1.11B39,2013-03-17 04:46:00,
2013-03-16 21:51:00,68.6,23.4,29.75,WNW,283,1.0,3.0,18,0.00,,,0.00,0,WeatherCatV1.11B39,2013-03-17 04:51:00,
2013-03-16 21:56:00,67.3,22.3,29.75,WNW,283,2.0,2.0,18,0.00,,,0.00,0,WeatherCatV1.11B39,2013-03-17 04:56:00,
2013-03-16 22:01:00,66.2,22.7,29.75,NNW,337,0.0,3.0,19,0.00,,,0.00,0,WeatherCatV1.11B39,2013-03-17 05:01:00,
2013-03-16 22:06:00,65.6,22.2,29.75,NNW,337,1.0,1.0,19,0.00,,,0.00,0,WeatherCatV1.11B39,2013-03-17 05:06:00,
2013-03-16 22:11:00,65.1,21.8,29.76,NNW,337,1.0,2.0,19,0.00,,,0.00,0,WeatherCatV1.11B39,2013-03-17 05:11:00,
2013-03-16 22:16:00,64.4,21.3,29.76,NNE,18,4.0,5.0,19,0.00,,,0.00,0,WeatherCatV1.11B39,2013-03-17 05:16:00,
2013-03-16 22:21:00,64.7,21.5,29.76,ENE,59,4.0,5.0,19,0.00,,,0.00,0,WeatherCatV1.11B39,2013-03-17 05:21:00,
2013-03-16 22:26:00,64.9,21.7,29.76,ENE,59,1.0,2.0,19,0.00,,,0.00,0,WeatherCatV1.11B39,2013-03-17 05:26:00,
2013-03-16 22:31:00,65.0,21.7,29.77,ENE,59,2.0,2.0,19,0.00,,,0.00,0,WeatherCatV1.11B39,2013-03-17 05:31:00,
2013-03-16 22:36:00,64.1,21.0,29.77,ENE,60,0.0,1.0,19,0.00,,,0.00,0,WeatherCatV1.11B39,2013-03-17 05:36:00,
2013-03-16 22:41:00,63.6,21.8,29.77,ENE,60,0.0,2.0,20,0.00,,,0.00,0,WeatherCatV1.11B39,2013-03-17 05:41:00,
2013-03-16 22:46:00,63.3,21.6,29.76,ENE,60,0.0,2.0,20,0.00,,,0.00,0,WeatherCatV1.11B39,2013-03-17 05:46:00,
2013-03-16 22:51:00,63.5,21.7,29.76,ENE,60,0.0,1.0,20,0.00,,,0.00,0,WeatherCatV1.11B39,2013-03-17 05:51:00,
2013-03-16 22:56:00,62.5,22.0,29.77,ENE,60,2.0,2.0,21,0.00,,,0.00,0,WeatherCatV1.11B39,2013-03-17 05:56:00,
2013-03-16 23:01:00,62.1,22.8,29.77,ENE,60,1.0,2.0,22,0.00,,,0.00,0,WeatherCatV1.11B39,2013-03-17 06:01:00,
2013-03-16 23:06:00,61.7,22.5,29.77,ENE,60,2.0,3.0,22,0.00,,,0.00,0,WeatherCatV1.11B39,2013-03-17 06:06:00,
2013-03-16 23:11:00,61.0,22.9,29.77,ENE,60,3.0,3.0,23,0.00,,,0.00,0,WeatherCatV1.11B39,2013-03-17 06:11:00,
2013-03-16 23:16:00,60.7,22.7,29.77,ENE,60,1.0,2.0,23,0.00,,,0.00,0,WeatherCatV1.11B39,2013-03-17 06:16:00,
2013-03-16 23:21:00,60.3,23.4,29.77,ENE,60,2.0,2.0,24,0.00,,,0.00,0,WeatherCatV1.11B39,2013-03-17 06:21:00,
2013-03-16 23:26:00,60.0,23.1,29.77,ENE,60,1.0,2.0,24,0.00,,,0.00,0,WeatherCatV1.11B39,2013-03-17 06:26:00,
2013-03-16 23:31:00,59.6,23.7,29.76,ENE,60,1.0,2.0,25,0.00,,,0.00,0,WeatherCatV1.11B39,2013-03-17 06:31:00,
2013-03-16 23:36:00,59.8,23.9,29.77,ENE,60,2.0,3.0,25,0.00,,,0.00,0,WeatherCatV1.11B39,2013-03-17 06:36:00,
2013-03-16 23:41:00,59.5,23.7,29.76,ENE,60,2.0,3.0,25,0.00,,,0.00,0,WeatherCatV1.11B39,2013-03-17 06:41:00,
2013-03-16 23:46:00,58.9,23.1,29.76,ENE,60,1.0,2.0,25,0.00,,,0.00,0,WeatherCatV1.11B39,2013-03-17 06:46:00,
2013-03-16 23:51:00,58.2,24.4,29.76,ENE,60,2.0,3.0,27,0.00,,,0.00,0,WeatherCatV1.11B39,2013-03-17 06:51:00,
2013-03-16 23:56:00,57.7,24.0,29.76,ENE,59,2.0,3.0,27,0.00,,,0.00,0,WeatherCatV1.11B39,2013-03-17 06:56:00,